Temp
62 62 62 62 62 62 62 62 62 63 63 63 62 62 62 62 63 75 88 90 88 79 81 92 95 93 95 91 90 88 83 76 79 78 82 87 84 87 88 84 84 84 83 85 83
61 61 61 62 62 62 62 62 62 62 62 62 62 62 62 62 74 86 87 81 81 79 92 91 91 92 93 91 89 89 85 79 86 86 85 86 87 86 83 82 78 79 82 83 82
61 61 61 61 62 62 61 62 62 62 62 62 62 62 62 64 86 90 80 80 79 83 90 90 90 92 90 91 88 84 84 85 87 88 89 88 86 88 84 78 83 80 78 80 80
60 60 61 61 61 61 61 62 61 61 61 61 62 62 63 73 77 92 80 79 79 88 92 91 92 90 87 86 87 84 86 87 89 89 88 86 89 85 86 86 88 85 83 81 80
60 60 60 60 60 61 61 61 61 60 61 61 62 62 76 85 87 88 81 82 91 92 90 90 90 88 86 87 86 85 87 87 90 88 88 88 85 85 84 86 87 84 82 81 82
59 59 59 59 60 60 60 60 60 60 61 61 62 62 81 79 92 89 90 90 92 93 92 92 90 90 88 86 86 86 87 87 90 88 88 87 85 86 84 85 82 81 81 83 82
59 59 59 59 59 60 60 60 59 60 61 62 63 71 78 85 91 92 91 92 93 93 91 94 94 91 89 86 88 86 86 89 89 89 87 90 81 83 86 85 81 82 81 82 82
58 58 58 58 58 59 59 58 59 61 63 64 64 75 80 90 92 90 91 94 93 93 91 94 94 91 88 88 86 84 84 81 86 88 87 90 81 88 86 84 81 81 81 81 81
58 58 58 58 58 58 57 57 60 63 65 65 74 79 81 88 90 93 94 92 93 94 93 94 92 84 88 85 83 82 78 77 81 86 85 85 82 85 86 84 81 81 82 82 82
57 57 57 57 57 57 56 58 63 65 69 72 77 77 86 85 90 92 92 93 91 90 89 88 85 84 83 84 73 75 76 77 75 83 83 82 81 82 82 84 82 82 82 82 82
57 57 57 56 56 56 59 76 79 78 77 79 79 78 81 89 90 90 91 91 90 87 80 79 81 78 81 81 80 78 75 74 78 83 81 81 82 86 82 83 82 82 80 82 83
56 56 56 56 55 56 60 74 70 71 71 76 75 77 82 86 82 88 93 86 83 77 78 78 76 79 79 79 79 77 75 76 80 81 82 80 81 81 81 82 85 83 82 83 85
56 56 55 55 55 64 67 72 72 72 69 75 77 78 82 86 83 85 91 85 80 76 76 75 78 79 78 77 77 77 77 76 76 78 79 78 78 79 82 82 83 85 85 85 85
56 55 55 53 63 62 72 70 70 72 67 72 75 81 81 84 82 90 93 88 81 77 76 76 80 78 78 77 81 76 81 80 77 79 74 76 71 75 79 81 82 82 84 86 86
55 55 54 54 60 68 70 69 71 73 56 74 77 86 82 82 84 83 89 87 78 77 77 75 77 77 76 79 81 78 81 79 75 75 74 73 74 78 75 78 81 82 82 86 88
54 54 54 55 57 67 67 69 74 66 54 70 77 76 76 80 82 83 85 89 85 79 77 78 83 82 82 81 82 79 77 73 71 74 69 67 69 75 78 76 79 83 83 84 85
54 53 53 58 70 65 67 76 64 57 70 69 71 75 74 75 77 79 78 77 75 68 68 74 77 83 84 79 80 79 77 68 65 66 65 66 67 75 79 79 78 79 83 84 84
52 52 54 58 61 62 73 70 53 62 63 72 72 72 70 74 76 76 74 72 75 74 69 68 67 78 83 82 78 76 77 69 56 61 66 66 67 77 78 79 79 80 82 85 83
51 58 59 64 61 62 70 58 59 61 67 68 71 68 69 72 74 74 75 74 77 77 71 68 69 79 81 82 83 72 72 75 64 60 66 69 72 80 78 79 78 79 79 81 82
53 60 65 63 63 69 65 53 60 65 69 69 63 68 65 69 70 71 69 76 76 79 83 74 68 77 79 82 78 78 76 70 69 58 57 65 65 72 77 79 77 76 77 78 80
59 64 67 65 66 67 59 58 61 69 69 67 66 66 68 67 69 69 71 76 79 78 81 77 73 73 76 75 75 72 73 68 72 66 64 61 68 77 77 79 76 75 76 77 77
60 61 68 68 63 54 59 59 57 68 71 71 69 68 67 68 68 67 70 72 78 79 74 78 74 68 73 77 77 77 74 74 69 59 62 67 71 76 76 75 74 75 75 76 77
60 61 69 69 58 59 60 61 63 66 68 70 68 70 71 69 65 69 70 76 76 78 75 74 69 65 68 73 75 74 71 69 67 67 62 65 71 74 73 73 74 74 73 74 76
61 60 65 63 59 59 57 58 60 68 67 69 69 71 69 68 68 67 70 75 75 76 67 74 67 68 66 69 72 68 69 70 73 68 65 70 73 79 76 74 73 71 73 76 75
58 55 56 58 59 58 57 58 58 59 67 68 67 68 68 65 67 68 70 73 75 69 72 75 68 68 71 72 72 74 72 70 70 73 73 74 72 79 73 71 70 73 74 75 75
57 57 57 56 54 58 53 57 57 60 62 65 64 68 68 65 68 67 68 69 69 73 70 68 65 68 67 71 73 71 73 73 71 71 72 73 73 72 69 71 71 71 73 73 74
53 55 55 51 56 58 58 57 58 61 65 67 66 65 65 68 70 72 73 70 69 68 68 67 64 65 63 67 70 65 72 73 73 74 76 72 74 71 68 70 71 71 72 74 75
MSLP
1017.95 1017.51 1017.18 1016.71 1016.23 1015.93 1015.51 1015.09 1014.74 1014.34 1013.96 1013.23 1012.61 1012.23 1011.47 1010.85 1010.01 1009.77 1008.54 1007.61 1007.34 1007.41 1007.53 1007.30 1007.10 1007.34 1007.61 1007.45 1007.52 1007.44 1006.76 1006.68 1006.61 1006.75 1006.58 1007.27 1007.71 1008.65 1009.10 1009.56 1010.02 1010.60 1011.06 1011.43 1012.71
1017.96 1017.71 1017.23 1016.80 1016.41 1015.99 1015.58 1014.84 1014.53 1014.02 1013.78 1013.09 1012.50 1012.01 1011.57 1011.08 1010.12 1008.55 1007.35 1007.27 1007.23 1007.33 1007.23 1006.97 1006.54 1006.63 1006.42 1006.63 1006.81 1006.47 1006.25 1006.49 1006.49 1006.40 1006.28 1006.66 1007.25 1008.22 1008.93 1009.49 1010.13 1010.88 1011.67 1012.23 1013.08
1018.23 1017.76 1017.29 1016.84 1016.50 1016.05 1015.48 1014.79 1014.34 1013.84 1013.59 1012.95 1012.39 1011.93 1011.29 1010.77 1009.47 1008.00 1007.25 1007.25 1007.31 1007.20 1007.35 1007.01 1006.49 1006.11 1005.81 1006.03 1006.36 1006.38 1006.05 1006.28 1006.15 1006.33 1006.44 1006.64 1007.32 1007.97 1008.48 1009.23 1009.53 1010.25 1011.53 1012.36 1013.01
1018.23 1017.79 1017.40 1016.97 1016.52 1015.80 1015.05 1014.62 1014.04 1013.49 1013.37 1012.81 1012.27 1011.60 1010.96 1010.27 1009.16 1007.74 1007.46 1007.46 1007.29 1007.10 1006.91 1006.61 1006.11 1005.72 1005.71 1005.80 1006.27 1006.13 1006.27 1006.16 1005.91 1006.14 1006.42 1006.75 1007.28 1007.79 1008.19 1008.54 1009.12 1010.12 1011.11 1012.22 1012.83
1018.25 1017.80 1017.44 1016.97 1016.29 1015.75 1015.12 1014.52 1013.80 1013.37 1012.96 1012.58 1012.15 1011.41 1010.47 1009.57 1008.19 1007.56 1007.62 1007.50 1007.22 1007.01 1006.68 1006.34 1005.98 1005.94 1005.82 1005.94 1006.07 1005.91 1005.91 1005.94 1005.84 1006.08 1006.35 1006.85 1007.15 1007.65 1008.12 1008.87 1009.40 1010.42 1011.42 1011.95 1012.63
1018.35 1017.80 1017.37 1016.84 1016.19 1015.65 1015.09 1014.29 1013.69 1013.04 1012.73 1012.39 1011.88 1011.53 1010.42 1009.20 1007.64 1007.47 1007.48 1007.42 1007.07 1006.93 1006.67 1006.30 1006.24 1006.11 1005.86 1005.90 1005.83 1006.02 1005.83 1005.75 1005.54 1005.79 1006.19 1006.35 1006.99 1007.59 1008.32 1008.93 1009.84 1010.63 1011.20 1011.78 1012.18
1018.34 1017.69 1017.13 1016.58 1016.11 1015.37 1014.64 1014.03 1013.35 1012.89 1012.45 1012.02 1011.73 1011.33 1010.17 1008.34 1007.60 1007.39 1007.53 1007.28 1007.11 1006.96 1006.65 1006.48 1006.42 1006.15 1006.06 1005.91 1006.07 1005.92 1005.57 1005.37 1005.37 1005.67 1005.87 1006.34 1006.99 1006.89 1007.79 1008.59 1009.60 1010.40 1011.08 1011.64 1011.93
1018.15 1017.62 1017.04 1016.34 1015.57 1015.02 1014.33 1013.59 1012.99 1012.53 1011.93 1011.61 1011.62 1011.09 1009.06 1007.59 1007.51 1007.44 1007.40 1007.11 1007.10 1006.98 1006.88 1006.73 1006.55 1006.41 1006.29 1006.39 1006.27 1005.98 1005.89 1005.49 1005.70 1005.70 1005.98 1005.93 1005.70 1006.15 1007.51 1008.19 1009.25 1010.20 1010.77 1011.37 1011.47
1018.08 1017.46 1016.97 1016.26 1015.52 1014.88 1014.03 1013.30 1012.48 1011.98 1011.75 1011.77 1011.47 1010.48 1008.30 1007.28 1007.33 1007.06 1007.15 1006.98 1006.90 1006.84 1006.76 1006.75 1006.65 1006.85 1006.45 1006.19 1006.15 1006.28 1005.96 1005.99 1005.89 1006.11 1006.14 1006.09 1005.60 1006.21 1007.21 1007.91 1008.84 1009.71 1010.19 1010.67 1011.12
1017.95 1017.29 1016.66 1016.07 1015.35 1014.48 1013.51 1012.50 1012.07 1011.91 1011.74 1011.47 1011.11 1010.50 1008.09 1007.51 1007.19 1007.07 1007.18 1007.13 1006.84 1006.73 1006.71 1006.91 1007.11 1006.91 1006.73 1006.31 1005.98 1006.29 1006.39 1006.47 1006.37 1006.20 1006.07 1006.09 1006.07 1006.53 1007.24 1007.67 1008.09 1008.88 1009.60 1010.13 1010.66
1017.89 1017.32 1016.48 1015.91 1015.05 1014.37 1013.29 1012.13 1012.57 1012.09 1011.14 1010.55 1010.11 1009.36 1008.17 1007.51 1007.23 1006.97 1007.07 1007.05 1006.96 1007.04 1007.11 1007.62 1007.20 1006.74 1006.63 1006.55 1006.60 1006.82 1006.79 1006.75 1006.45 1006.26 1006.17 1005.87 1005.90 1006.15 1006.89 1007.41 1007.74 1008.44 1009.12 1009.53 1009.96
1017.90 1017.37 1016.48 1015.78 1014.87 1014.22 1014.02 1013.03 1013.43 1013.64 1011.77 1010.01 1009.77 1009.13 1008.35 1007.95 1007.28 1006.77 1006.85 1006.88 1006.98 1007.09 1007.47 1007.72 1007.22 1007.13 1007.13 1007.04 1006.74 1006.75 1006.74 1006.53 1006.46 1006.35 1005.95 1006.01 1005.83 1006.22 1006.68 1006.89 1007.47 1008.14 1008.72 1009.14 1009.83
1017.89 1017.29 1016.45 1015.52 1014.67 1014.03 1013.98 1013.56 1013.52 1013.36 1012.30 1009.78 1009.03 1008.34 1007.74 1007.68 1006.96 1006.39 1006.53 1006.62 1006.80 1007.14 1007.25 1007.23 1007.20 1007.21 1007.12 1006.85 1006.57 1006.69 1006.48 1006.43 1006.49 1006.51 1006.61 1006.43 1005.97 1006.09 1006.46 1007.05 1007.38 1007.54 1007.83 1008.33 1008.89
1017.81 1017.15 1016.38 1015.41 1014.80 1014.94 1014.05 1013.69 1013.52 1013.16 1011.75 1009.43 1008.43 1007.52 1007.56 1007.20 1006.61 1006.02 1006.03 1006.28 1006.68 1006.94 1007.34 1007.24 1007.14 1007.00 1006.74 1006.39 1006.34 1006.25 1006.30 1006.51 1006.59 1006.38 1006.60 1006.97 1006.17 1006.28 1006.37 1006.58 1006.85 1006.83 1007.06 1007.37 1008.20
1017.56 1017.05 1016.48 1016.27 1015.55 1014.65 1013.96 1013.65 1013.31 1012.74 1010.79 1008.94 1007.74 1007.31 1007.30 1006.97 1006.30 1006.17 1006.13 1006.18 1006.45 1006.92 1007.41 1006.95 1006.87 1006.72 1006.31 1005.93 1006.08 1006.35 1006.49 1006.82 1007.03 1006.99 1007.11 1007.20 1006.77 1006.03 1006.57 1006.37 1006.49 1006.53 1006.71 1006.89 1007.96
1017.13 1016.76 1016.37 1016.05 1015.65 1013.96 1013.73 1013.29 1012.95 1011.93 1009.91 1008.25 1007.51 1007.10 1007.01 1006.75 1006.23 1006.21 1006.08 1006.11 1006.61 1006.94 1007.14 1006.87 1006.79 1006.51 1005.95 1006.01 1006.12 1006.59 1006.95 1007.36 1007.67 1007.49 1007.32 1007.79 1007.44 1006.15 1006.25 1006.78 1006.52 1006.64 1006.71 1006.97 1007.73
1016.54 1016.23 1016.07 1015.48 1014.52 1013.92 1013.49 1012.75 1012.31 1010.84 1009.47 1008.44 1007.63 1007.17 1006.81 1006.55 1006.27 1006.06 1006.01 1006.24 1006.38 1006.88 1006.86 1006.83 1006.42 1005.97 1005.84 1005.87 1006.46 1006.48 1006.67 1007.11 1007.41 1007.49 1007.63 1008.33 1007.79 1006.27 1006.47 1007.07 1007.15 1006.91 1006.71 1006.90 1007.77
1015.83 1015.32 1015.22 1014.88 1014.45 1014.22 1013.09 1012.56 1011.71 1010.26 1009.39 1008.61 1007.88 1007.38 1006.88 1006.44 1006.23 1006.17 1006.15 1006.30 1006.68 1006.69 1006.82 1006.51 1006.32 1005.72 1005.49 1005.51 1005.75 1006.57 1006.76 1007.04 1007.45 1008.00 1007.95 1008.45 1007.26 1006.19 1006.87 1007.11 1007.18 1007.07 1007.09 1007.29 1007.90
1015.25 1015.03 1014.88 1014.41 1014.33 1014.39 1013.24 1012.39 1011.17 1010.48 1009.80 1008.94 1007.97 1007.43 1006.88 1006.53 1006.37 1006.33 1006.15 1006.08 1006.09 1006.46 1006.24 1006.29 1006.02 1005.59 1005.57 1005.58 1005.91 1007.06 1007.28 1007.65 1008.03 1009.09 1008.26 1007.76 1007.16 1006.22 1006.70 1006.81 1007.10 1007.29 1007.47 1007.66 1008.09
1015.57 1014.89 1014.54 1014.30 1014.19 1013.67 1013.04 1012.33 1011.62 1010.89 1010.12 1009.47 1008.55 1007.90 1007.13 1006.75 1006.54 1006.38 1006.29 1005.78 1005.84 1005.96 1005.95 1006.31 1006.09 1005.85 1005.77 1005.87 1006.53 1006.57 1007.22 1007.71 1007.79 1008.01 1007.80 1007.55 1007.16 1006.43 1006.32 1006.54 1007.35 1007.70 1007.96 1008.41 1008.84
1015.45 1014.75 1014.54 1014.38 1014.09 1013.49 1013.15 1012.76 1011.96 1010.96 1010.49 1009.74 1009.01 1008.36 1007.68 1007.20 1006.82 1006.48 1006.11 1005.67 1005.53 1005.82 1006.16 1006.43 1006.51 1006.24 1006.13 1005.90 1006.02 1007.07 1007.08 1007.66 1007.74 1008.07 1007.47 1007.23 1006.56 1006.34 1006.50 1007.02 1007.84 1008.42 1008.72 1009.13 1009.87
1015.44 1014.66 1014.33 1014.10 1014.07 1014.47 1013.61 1013.29 1012.61 1011.22 1010.52 1009.81 1009.35 1008.74 1008.10 1007.66 1007.11 1006.74 1006.17 1005.91 1005.71 1005.78 1006.23 1006.48 1006.41 1006.20 1006.02 1006.12 1006.43 1006.33 1006.47 1006.86 1007.06 1008.26 1008.20 1007.53 1006.55 1006.63 1006.92 1007.68 1008.55 1008.94 1009.34 1009.83 1010.39
1015.83 1015.11 1014.28 1013.92 1013.95 1014.10 1013.87 1013.26 1012.67 1011.62 1010.76 1010.04 1009.34 1008.90 1008.49 1007.91 1007.61 1006.86 1006.38 1006.09 1006.11 1005.89 1005.78 1006.32 1006.60 1006.39 1006.05 1006.40 1006.62 1006.25 1006.62 1006.95 1007.11 1007.44 1007.45 1006.93 1006.51 1006.93 1007.50 1008.11 1008.89 1009.31 1009.94 1010.23 1010.36
1016.19 1015.41 1014.72 1014.49 1014.89 1014.41 1014.02 1013.42 1012.65 1011.90 1011.17 1010.45 1009.64 1009.11 1008.73 1008.14 1007.81 1007.16 1006.50 1006.31 1006.41 1006.23 1006.09 1006.02 1006.40 1006.09 1005.81 1005.81 1005.97 1006.19 1006.54 1006.72 1006.35 1006.70 1006.97 1006.63 1006.45 1006.62 1007.53 1008.38 1009.14 1009.92 1010.29 1010.26 1010.42
1016.75 1016.68 1016.39 1015.36 1015.08 1014.81 1014.41 1013.84 1012.91 1012.12 1011.41 1010.75 1009.84 1009.18 1008.86 1008.33 1007.75 1007.27 1006.95 1006.59 1006.62 1006.72 1006.63 1006.47 1006.34 1006.47 1006.18 1006.07 1006.00 1005.88 1006.05 1006.29 1006.27 1006.10 1005.86 1006.21 1006.74 1007.00 1008.16 1008.93 1009.62 1010.11 1010.45 1010.38 1010.36
1017.79 1017.57 1017.04 1016.19 1015.63 1014.91 1014.68 1014.01 1013.35 1012.67 1012.15 1010.73 1010.16 1009.37 1009.05 1008.69 1008.01 1007.43 1007.30 1007.19 1007.09 1006.93 1006.95 1007.23 1006.91 1006.63 1006.54 1006.25 1006.13 1006.01 1006.11 1006.30 1006.43 1006.48 1006.44 1006.74 1007.23 1008.30 1009.17 1009.65 1009.85 1010.34 1010.59 1010.57 1010.42
1019.20 1018.78 1017.89 1016.84 1015.80 1015.09 1014.72 1014.29 1013.70 1013.38 1011.91 1011.27 1010.61 1010.15 1009.38 1009.16 1008.79 1008.16 1007.83 1007.69 1007.66 1007.46 1007.24 1007.41 1007.27 1007.06 1006.86 1006.66 1006.40 1006.40 1006.04 1006.22 1006.39 1006.51 1006.43 1006.90 1007.73 1008.77 1009.47 1009.99 1010.45 1010.81 1011.04 1010.91 1010.85
Wind_Speed
17 17 17 17 17 17 18 17 17 17 17 18 17 16 16 16 15 4 1 2 3 4 0 5 5 7 10 6 4 4 1 3 4 6 4 9 8 6 3 9 2 2 3 6 18
18 17 18 18 17 17 17 17 17 17 18 17 17 16 15 13 4 2 2 3 5 6 2 4 1 5 5 5 3 1 2 1 1 3 5 13 11 11 5 9 2 5 10 16 16
17 18 18 18 18 18 17 17 18 17 17 17 18 16 15 9 1 2 0 3 3 3 1 2 2 2 3 2 2 1 3 3 0 3 6 11 9 7 6 8 7 11 17 17 15
18 18 18 18 19 20 20 19 19 19 17 17 18 17 16 2 1 3 2 1 1 4 3 1 1 2 3 3 2 2 2 3 2 3 7 10 10 7 10 2 2 14 20 17 15
18 18 19 19 19 20 21 21 20 19 18 16 16 15 3 3 2 1 2 1 2 3 4 4 4 2 4 1 3 1 2 3 1 4 6 10 8 4 9 5 12 17 18 17 15
18 18 19 19 20 20 20 20 19 20 19 16 14 14 1 2 1 2 2 2 3 3 4 4 4 2 4 2 2 2 3 4 2 4 8 12 6 5 5 11 14 17 17 16 17
19 19 20 21 21 22 21 20 21 20 18 13 8 4 1 7 1 3 3 1 1 2 4 2 4 3 2 2 4 3 4 2 1 4 4 8 5 13 10 15 16 16 15 15 15
19 20 21 22 23 23 23 23 22 18 10 4 2 2 6 2 4 2 1 2 1 2 2 4 1 2 1 2 3 2 2 3 2 2 4 12 8 12 14 17 16 15 14 14 17
20 20 21 22 23 24 24 23 19 6 1 2 1 1 6 5 2 1 3 1 3 1 2 1 3 3 1 2 2 5 2 4 5 4 2 11 4 1 13 14 15 15 15 14 13
21 21 21 22 22 23 26 19 3 1 2 2 1 3 3 1 3 1 1 1 3 2 2 5 4 0 2 3 7 2 1 2 5 1 4 8 6 2 11 14 17 16 15 14 14
21 22 22 22 23 22 14 1 2 3 2 3 1 3 4 7 3 2 2 6 2 5 2 3 3 5 5 3 7 5 1 4 3 1 3 7 6 7 11 13 14 15 15 14 15
22 23 23 23 23 21 5 5 4 3 6 4 7 8 6 2 4 2 6 4 2 4 3 2 4 3 2 4 5 3 2 3 3 5 2 2 3 3 8 9 11 12 13 14 12
22 22 22 23 25 4 4 6 4 6 3 5 4 4 3 9 5 5 9 4 3 5 4 3 3 4 4 4 5 3 3 2 2 3 3 2 1 2 1 8 3 11 15 15 16
21 21 20 26 2 3 1 1 5 6 2 3 2 2 4 4 5 5 7 3 2 5 5 3 1 3 2 4 7 4 6 3 1 1 2 6 2 4 3 7 6 7 14 17 16
21 20 17 10 5 3 2 7 3 4 3 2 2 2 1 7 2 4 2 3 5 5 4 3 5 4 3 3 9 3 3 4 3 3 2 4 4 1 1 4 7 5 7 13 10
21 19 16 3 2 4 7 6 4 1 5 2 1 2 5 5 1 3 4 3 2 4 1 2 1 4 2 3 2 11 5 5 3 1 4 2 3 2 3 4 8 7 5 7 8
22 19 6 1 1 8 6 2 2 4 2 1 2 2 2 7 4 4 11 10 6 5 6 2 4 3 3 3 5 3 4 1 3 4 2 2 4 4 2 6 8 11 9 5 8
25 14 5 3 4 8 2 2 3 2 3 2 2 3 5 8 8 5 9 10 3 3 3 7 7 6 5 5 4 4 4 3 3 3 3 2 3 1 2 5 6 7 9 4 6
19 1 1 2 2 3 2 4 6 4 3 6 5 3 2 2 4 11 11 8 11 10 4 5 5 2 3 2 2 6 4 4 7 1 4 1 3 8 3 2 3 4 1 3 4
2 2 4 5 2 1 2 3 2 2 4 2 2 2 1 1 6 9 9 6 7 13 7 4 3 1 2 4 9 2 9 5 1 5 4 2 4 3 3 5 1 2 1 1 2
0 2 4 3 3 3 3 3 4 4 3 2 1 3 2 2 1 4 4 3 9 10 9 7 3 3 3 4 7 5 4 5 4 3 4 3 3 5 6 3 1 3 4 4 6
1 2 3 2 2 1 1 2 4 3 2 2 2 4 2 3 3 3 6 4 4 11 11 7 4 6 7 2 2 1 4 6 5 6 1 3 4 1 4 2 2 1 4 8 8
2 1 2 3 2 2 1 2 3 3 3 2 3 4 1 2 3 4 4 2 1 9 12 10 3 4 2 4 3 4 4 3 7 3 6 5 2 3 3 5 4 3 6 4 5
0 2 2 4 2 2 2 1 3 4 6 4 4 2 2 3 3 4 2 1 1 4 1 8 5 5 8 3 3 4 5 7 3 5 8 5 3 4 4 7 6 4 3 3 4
4 3 2 2 3 3 2 2 2 4 3 3 4 9 6 3 2 5 1 2 1 1 2 6 8 6 3 3 3 5 9 9 6 7 6 7 7 3 5 2 5 4 2 4 4
3 2 1 2 1 1 2 1 3 4 3 4 6 6 8 7 4 2 1 0 1 1 3 1 4 6 4 5 8 6 8 7 2 6 3 3 4 6 4 7 7 3 1 3 3
2 1 3 2 1 2 1 2 2 6 6 12 11 9 5 5 5 4 4 1 2 2 4 3 5 4 5 2 8 6 9 8 4 5 4 6 3 3 5 6 5 3 2 4 5
Wind_Direction
1 356 354 354 353 346 339 337 331 328 326 326 324 324 323 326 310 210 347 284 238 345 232 279 159 148 172 160 186 186 158 150 192 174 186 156 186 138 114 145 140 80 124 125 144
359 354 352 350 346 342 332 332 327 327 323 325 323 322 319 326 295 6 301 211 279 355 68 4 78 156 143 148 151 208 77 136 233 234 205 171 186 157 154 166 147 100 94 131 148
354 352 349 346 341 337 330 329 323 323 322 324 321 320 314 316 277 354 276 239 329 358 115 248 257 220 103 89 61 152 115 189 72 224 184 180 162 166 153 212 204 168 148 155 160
352 350 346 341 336 334 332 326 321 320 321 325 320 318 314 267 113 359 209 255 303 313 301 224 164 85 79 87 72 251 102 233 107 162 169 178 146 181 197 59 263 156 155 160 170
348 348 342 338 336 330 325 321 317 315 317 322 317 319 313 358 283 40 183 272 302 338 24 25 51 124 115 115 126 74 15 226 192 185 162 145 176 188 223 60 123 142 158 168 180
346 344 340 336 332 325 319 316 313 312 312 314 312 312 29 290 30 286 253 283 356 359 0 16 19 358 100 86 63 299 286 284 240 147 173 186 170 186 152 133 139 155 171 176 186
345 343 338 334 329 324 319 313 311 308 307 303 295 307 84 248 14 292 265 314 327 351 346 22 345 320 149 113 352 19 326 66 20 132 168 176 197 228 155 161 160 171 180 183 197
344 341 336 331 329 323 315 314 309 306 305 293 221 243 260 211 319 226 212 281 236 273 255 334 20 103 352 85 48 57 60 329 20 217 151 199 255 226 167 168 173 181 185 193 201
342 340 334 330 326 318 315 311 304 294 1 127 192 342 275 316 236 276 210 244 318 27 40 19 50 39 97 116 139 35 339 325 351 300 227 219 253 207 174 181 179 185 194 198 204
341 337 332 328 324 320 318 305 232 243 166 217 257 273 265 59 318 313 182 250 62 4 54 37 44 65 99 205 232 155 21 295 274 41 216 209 268 145 187 194 193 190 194 203 209
341 335 332 327 323 323 333 217 281 184 32 239 254 276 282 308 246 175 170 147 113 61 145 32 229 207 187 136 120 123 137 272 269 273 243 202 223 225 195 212 210 200 197 207 212
341 334 331 325 323 319 277 71 81 346 308 245 251 267 268 328 300 177 167 163 160 166 153 171 224 187 146 173 149 133 161 241 277 343 219 195 177 328 202 232 238 212 210 218 196
338 334 330 327 319 326 351 115 347 178 265 288 222 244 230 177 221 232 178 150 150 160 161 186 119 130 221 175 158 169 209 194 296 345 85 333 127 325 177 247 261 225 219 213 208
337 335 334 326 288 345 142 337 315 199 353 274 246 268 175 196 231 207 185 149 143 203 166 226 200 234 199 200 184 197 209 188 265 299 24 348 298 245 317 316 324 284 212 213 207
336 334 334 335 313 244 42 320 143 221 313 68 164 28 130 205 112 188 201 132 182 161 197 143 169 179 272 216 190 100 107 131 93 89 216 36 270 266 235 237 343 354 214 222 206
332 331 329 169 227 278 316 314 212 205 248 28 12 162 156 219 241 110 158 89 109 143 242 254 278 260 250 61 166 142 110 74 78 133 234 47 290 192 307 339 315 329 262 224 194
328 322 292 246 312 328 304 206 170 209 5 80 47 22 230 192 216 167 178 182 179 165 213 220 223 259 211 130 105 144 157 213 228 206 239 136 242 267 283 327 289 295 292 217 178
327 320 190 237 305 338 275 133 190 227 253 347 325 287 216 167 215 167 153 191 201 137 139 198 201 194 165 223 164 158 219 210 235 214 158 154 229 161 78 303 312 279 257 237 181
322 65 136 297 271 188 153 184 209 207 340 331 301 256 225 210 236 208 215 207 198 190 192 163 227 271 229 130 200 154 181 80 109 102 252 333 253 273 140 233 12 28 81 189 206
353 351 21 347 129 109 114 218 238 234 328 307 309 349 314 346 196 193 181 196 194 200 217 175 200 184 89 125 58 252 134 155 143 176 220 186 273 263 271 233 66 84 24 7 282
318 89 9 8 276 59 204 232 273 262 242 275 314 299 310 325 262 207 196 214 213 182 198 154 246 148 210 197 179 146 170 68 100 327 196 217 230 221 262 269 119 33 1 7 31
356 84 18 291 84 50 121 333 331 296 278 275 249 254 266 339 286 233 225 255 180 151 178 186 180 233 257 80 334 192 188 172 195 183 60 304 224 46 221 221 126 79 32 45 46
50 27 58 289 111 83 31 319 277 287 276 297 279 239 244 303 298 236 212 106 188 173 171 170 193 200 181 158 156 213 158 127 102 113 180 199 224 118 200 227 192 125 84 59 51
279 121 56 62 30 44 31 42 296 295 262 270 271 265 277 269 215 296 263 151 6 228 66 155 144 188 211 160 148 167 175 175 132 180 155 229 277 279 220 223 184 128 108 79 52
11 68 2 109 100 76 238 326 300 306 257 257 240 233 234 255 251 231 248 281 90 358 91 193 192 186 191 199 217 193 175 178 194 162 199 160 209 291 26 26 122 166 115 91 69
26 342 40 77 307 185 55 54 303 317 263 262 243 345 219 232 244 279 218 334 6 347 110 64 159 165 159 178 201 206 193 190 206 166 133 157 240 39 78 112 121 140 14 39 9
44 172 295 359 122 205 90 343 275 329 263 251 292 291 263 243 313 308 279 306 1 265 130 131 141 161 179 169 158 202 196 184 167 198 169 200 76 50 114 114 116 111 80 33 353